This is the latest recevied weather packets stored in our database for station/object NW1E. If no packets are shown the sender has not sent any weather packets the latest 10 day(s).
| Time | Temp. | Humidity | Pressure | Rain* | Wind** | Luminosity | Snow |
|---|---|---|---|---|---|---|---|
| 1777284966 | 21.11° C | 93% | 1013.5 hPa | 0 mm | - | 0 W/m² | - |
| 1777283762 | 20.56° C | 93% | 1013.3 hPa | 0 mm | - | 0 W/m² | - |
| 1777283164 | 20.56° C | 93% | 1013.1 hPa | 0 mm | - | 0 W/m² | - |
| 1777280763 | 20.56° C | 93% | 1012.8 hPa | 0 mm | - | 0 W/m² | - |
| 1777280165 | 20.56° C | 93% | 1012.8 hPa | 0 mm | - | 0 W/m² | - |
| 1777273539 | 20.56° C | 90% | 1012.4 hPa | 0 mm | - | 0 W/m² | - |
| 1777272330 | 21.11° C | 90% | 1012.3 hPa | 0 mm | - | 0 W/m² | - |
| 1777271910 | 21.67° C | 90% | 1012.4 hPa | 0 mm | - | 0 W/m² | - |
| 1777268410 | 21.11° C | 90% | 1012.6 hPa | 0 mm | - | 0 W/m² | - |
| 1777266606 | 21.11° C | 90% | 1012.9 hPa | 0 mm | - | 0 W/m² | - |
| 1777266486 | 21.11° C | 90% | 1012.8 hPa | 0 mm | - | 0 W/m² | - |
| 1777265704 | 21.11° C | 90% | 1013.1 hPa | 0 mm | - | 0 W/m² | - |
| 1777264205 | 20.56° C | 89% | 1013.2 hPa | 0 mm | - | 0 W/m² | - |
| 1777263303 | 20.56° C | 87% | 1013.3 hPa | 0 mm | - | 0 W/m² | - |
| 1777261804 | 21.67° C | 87% | 1013.2 hPa | 0 mm | - | 0 W/m² | - |
| 1777260901 | 21.11° C | 87% | 1013.2 hPa | 0 mm | - | 0 W/m² | - |
| 1777259261 | 21.67° C | 84% | 1013 hPa | 0 mm | - | 0 W/m² | - |
| 1777258484 | 21.67° C | 82% | 1012.8 hPa | 0 mm | - | 0 W/m² | - |
| 1777257882 | 22.78° C | 81% | 1012.7 hPa | 0 mm | - | 0 W/m² | - |
| 1777257282 | 22.78° C | 81% | 1012.6 hPa | 0 mm | - | 0 W/m² | - |
| 1777256075 | 23.33° C | 80% | 1012.4 hPa | 0 mm | - | 0 W/m² | - |
| 1777255659 | 23.33° C | 80% | 1012.3 hPa | 0 mm | - | 0 W/m² | - |
| 1777255176 | 23.33° C | 80% | 1012.2 hPa | 0 mm | - | 0 W/m² | - |
| 1777254874 | 23.89° C | 80% | 1012 hPa | 0 mm | - | 0 W/m² | - |
| 1777253951 | 23.89° C | 79% | 1011.9 hPa | 0 mm | - | 0 W/m² | - |
* Rain latest hour (hover to see other rain measurements)
** Current wind speed in m/s (hover to see current wind gust speed)